This is the latest recevied weather packets stored in our database for station/object W4KAB. If no packets are shown the sender has not sent any weather packets the latest 10 day(s).
| Time | Temp. | Humidity | Pressure | Rain* | Wind** | Luminosity | Snow |
|---|---|---|---|---|---|---|---|
| 1777618833 | 8.89° C | 82% | 1016 hPa | 0 mm | - | 0 W/m² | - |
| 1777618533 | 8.89° C | 82% | 1016.2 hPa | 0 mm | - | 0 W/m² | - |
| 1777618229 | 8.89° C | 82% | 1016.1 hPa | 0 mm | - | 0 W/m² | - |
| 1777617927 | 8.89° C | 80% | 1016.2 hPa | 0 mm | - | 0 W/m² | - |
| 1777617622 | 8.33° C | 79% | 1016.2 hPa | 0 mm | - | 0 W/m² | - |
| 1777617319 | 8.33° C | 83% | 1016.2 hPa | 0 mm | - | 0 W/m² | - |
| 1777617016 | 8.33° C | 82% | 1016.3 hPa | 0 mm | - | 0 W/m² | - |
| 1777616711 | 8.33° C | 82% | 1016.3 hPa | 0 mm | - | 0 W/m² | - |
| 1777616405 | 8.33° C | 82% | 1016.2 hPa | 0 mm | - | 0 W/m² | - |
| 1777616103 | 8.33° C | 81% | 1016.3 hPa | 0 mm | - | 0 W/m² | - |
| 1777615800 | 8.33° C | 81% | 1016.4 hPa | 0 mm | - | 0 W/m² | - |
| 1777615497 | 8.33° C | 80% | 1016.1 hPa | 0 mm | - | 0 W/m² | - |
| 1777615197 | 8.33° C | 78% | 1016.4 hPa | 0 mm | - | 0 W/m² | - |
| 1777614892 | 8.33° C | 78% | 1016.2 hPa | 0 mm | - | 0 W/m² | - |
| 1777614589 | 8.33° C | 79% | 1016.4 hPa | 0 mm | - | 0 W/m² | - |
| 1777614284 | 8.33° C | 80% | 1016.2 hPa | 0 mm | - | 0 W/m² | - |
| 1777613979 | 8.33° C | 77% | 1016.1 hPa | 0 mm | - | 0 W/m² | - |
| 1777613676 | 8.33° C | 78% | 1016.1 hPa | 0 mm | - | 0 W/m² | - |
| 1777613373 | 8.33° C | 78% | 1016.2 hPa | 0 mm | - | 0 W/m² | - |
| 1777613070 | 8.33° C | 77% | 1016.4 hPa | 0 mm | - | 0 W/m² | - |
| 1777612766 | 8.33° C | 75% | 1016.1 hPa | 0 mm | - | 0 W/m² | - |
| 1777612461 | 8.89° C | 77% | 1016.3 hPa | 0 mm | - | 0 W/m² | - |
| 1777612158 | 8.89° C | 76% | 1016.1 hPa | 0 mm | - | 0 W/m² | - |
| 1777611853 | 8.89° C | 75% | 1016.1 hPa | 0 mm | - | 0 W/m² | - |
| 1777611549 | 8.89° C | 71% | 1016 hPa | 0 mm | - | 0 W/m² | - |
* Rain latest hour (hover to see other rain measurements)
** Current wind speed in m/s (hover to see current wind gust speed)